Home   Weather   Langesund   Past weeks

Flag for Norway Past Weather in Langesund, Norway — Yesterday and Last 2 Weeks

Now
67 °F

Mild.


Feels Like: 67 °F
Forecast: 59 / 72 °F
Wind: 3 mph from Northeast

Location: Jomfruland Fyr

Current Time: Jul 25, 2017 at 10:57:12 am

Latest Report: Jul 25, 2017 at 10:00 am


Visibility: N/A

Pressure: 29.92 "Hg

Humidity: 66%

Dew Point: 55 °F

Location of LangesundLocation

Past Weather in Langesund — Graph

°F

Langesund Temperature Yesterday

Maximum temperature yesterday: 67 °F (at 4:00 pm)
Minimum temperature yesterday: 61 °F (at 6:00 am)
Average temperature yesterday: 64 °F

High & Low Weather Summary for the Past Weeks

 TemperatureHumidityPressure
High75 °F (Jul 23, 3:00 pm)95% (Jul 16, 8:00 am)30.13 "Hg (Jul 16, 8:00 am)
Low54 °F (Jul 14, 5:00 am)33% (Jul 13, 11:00 am)29.55 "Hg (Jul 12, 1:00 am)
Average62 °F69%29.89 "Hg
* Reported Jul 10 9:00 am — Jul 25 9:00 am, Langesund. Weather by CustomWeather, © 2017

Note: Actual official high and low records may vary slightly from our data, if they occured in-between our weather recording intervals... More about our weather records

Advertising

Langesund Weather History for the Previous 24 Hours

Scroll right to see more
 ConditionsComfort  
Time TempWeatherWind HumidityBarometerVisibility
9:00 am
Tue, Jul 25
65 °FMild.6 mph66%29.92 "HgN/A
8:00 am63 °FMild.5 mph71%29.93 "HgN/A
7:00 am63 °FMild.5 mph72%29.93 "HgN/A
6:00 am63 °FMild.3 mph74%29.93 "HgN/A
5:00 am62 °FCool.3 mph77%29.93 "HgN/A
4:00 am62 °FCool.3 mph78%29.94 "HgN/A
3:00 am62 °FCool.5 mph77%29.95 "HgN/A
2:00 am64 °FMild.3 mph70%29.95 "HgN/A
1:00 am64 °FMild.3 mph67%29.94 "HgN/A
12:00 am65 °FMild.5 mph65%29.94 "HgN/A
11:00 pm
Mon, Jul 24
65 °FMild.5 mph64%29.95 "HgN/A
10:00 pm65 °FMild.3 mph66%29.95 "HgN/A
9:00 pm65 °FMild.3 mph64%29.96 "HgN/A
8:00 pm66 °FMild.3 mph63%29.95 "HgN/A
7:00 pm66 °FMild.3 mph65%29.95 "HgN/A
6:00 pm66 °FMild.5 mph62%29.95 "HgN/A
5:00 pm66 °FMild.2 mph64%29.96 "HgN/A
4:00 pm67 °FMild.5 mph57%29.96 "HgN/A
3:00 pm66 °FMild.6 mph67%29.96 "HgN/A
2:00 pm65 °FMild.6 mph68%29.96 "HgN/A
1:00 pm66 °FMild.6 mph65%29.96 "HgN/A
12:00 pm65 °FMild.7 mph65%29.96 "HgN/A
11:00 am65 °FMild.6 mph68%29.96 "HgN/A
10:00 am65 °FMild.6 mph72%29.95 "HgN/A
Weather by CustomWeather, © 2017

See weather overviewHow to use our weather pages